San Diego, CA

6:58 PM PDT on June 25, 2017 (GMT -0700)
San Diego International-Lindbergh

Weather History for KSAN - December, 2013

Change the Weather History Date:

Sunday, December 15, 2013

  Actual Average Record
Temperature  
Mean Temperature 61 °F 56 °F  
Max Temperature 75 °F 64 °F 81 °F (1958)
Min Temperature 47 °F 48 °F 35 °F (1878)
Degree Days  
Heating Degree Days 4 9  
Month to date heating degree days 103 121  
Since 1 July heating degree days 173 266  
Cooling Degree Days 0 0  
Month to date cooling degree days 0 0  
Year to date cooling degree days 761 720  
Growing Degree Days 10 (Base 50)    
Moisture  
Dew Point 27 °F    
Average Humidity 26    
Maximum Humidity 42    
Minimum Humidity 9    
Precipitation  
Precipitation 0.00 in 0.05 in 2.35 in (1938)
Month to date precipitation 0.12 0.66  
Year to date precipitation 5.23 9.47  
Since 1 July precipitation 1.90  
Snow  
Snow 0.00 in - - ()
Month to date snowfall 0.0  
Year to date snowfall 0.0  
Snow Depth 0.00 in    
Sea Level Pressure  
Sea Level Pressure 30.15 in    
Wind  
Wind Speed 3 mph (NNW)    
Max Wind Speed 9 mph    
Max Gust Speed 12 mph    
Visibility 10 miles    
Events      
T = Trace of Precipitation, MM = Missing Value Source: NWS Daily Summary

Daily Weather History Graph

Daily Weather History Graph

Search for Another Location

Airport or City:

Trip Planner

Search our weather history database for the weather conditions in past years. The results will help you decide how hot, cold, wet, or windy it might be!

Date:

Astronomy

Dec. 15, 2013 Rise Set
Actual Time 6:43 AM PST 4:44 PM PST
Civil Twilight 6:16 AM PST 5:11 PM PST
Nautical Twilight 5:45 AM PST 5:42 PM PST
Astronomical Twilight 5:15 AM PST 6:12 PM PST
Moon 3:48 PM PST (12/15) 5:07 AM PST (12/15)
Length of Visible Light 10h 55m
Length of Day
10h 00m
Waxing Gibbous, 98% of the Moon is Illuminated
Dec 15
Waxing Gibbous
Dec 17
Full
Dec 25
Last Quarter
Jan 1
New
Jan 7
First Quarter

Hourly Weather History & Observations

Time (PST) Temp. Dew Point Humidity Pressure Visibility Wind Dir Wind Speed Gust Speed Precip Events Conditions
12:51 AM 53.1 °F 28.0 °F 38% 30.23 in 10.0 mi North 3.5 mph - N/A   Partly Cloudy
1:51 AM 51.1 °F 28.9 °F 43% 30.22 in 10.0 mi SW 3.5 mph - N/A   Partly Cloudy
2:51 AM 51.1 °F 27.0 °F 39% 30.21 in 9.0 mi NNW 4.6 mph - N/A   Clear
3:51 AM 50.0 °F 25.0 °F 38% 30.20 in 10.0 mi Calm Calm - N/A   Clear
4:51 AM 48.0 °F 26.1 °F 42% 30.19 in 10.0 mi Calm Calm - N/A   Clear
5:51 AM 48.0 °F 25.0 °F 41% 30.19 in 10.0 mi Calm Calm - N/A   Partly Cloudy
6:51 AM 48.9 °F 24.1 °F 38% 30.19 in 10.0 mi Calm Calm - N/A   Scattered Clouds
7:51 AM 51.1 °F 25.0 °F 36% 30.21 in 10.0 mi Calm Calm - N/A   Scattered Clouds
8:51 AM 59.0 °F 28.0 °F 31% 30.21 in 10.0 mi Calm Calm - N/A   Scattered Clouds
9:51 AM 64.9 °F 21.9 °F 19% 30.21 in 10.0 mi Calm Calm - N/A   Scattered Clouds
10:51 AM 70.0 °F 21.0 °F 16% 30.19 in 10.0 mi Calm Calm - N/A   Scattered Clouds
11:51 AM 72.0 °F 19.9 °F 14% 30.16 in 10.0 mi NNW 4.6 mph - N/A   Mostly Cloudy
12:51 PM 73.9 °F 10.9 °F 9% 30.12 in 10.0 mi NW 6.9 mph - N/A   Mostly Cloudy
1:51 PM 73.9 °F 26.1 °F 17% 30.09 in 10.0 mi NNW 6.9 mph - N/A   Mostly Cloudy
2:51 PM 71.1 °F 32.0 °F 24% 30.08 in 10.0 mi WNW 6.9 mph - N/A   Mostly Cloudy
3:51 PM 66.9 °F 35.1 °F 31% 30.08 in 10.0 mi NW 5.8 mph - N/A   Mostly Cloudy
4:51 PM 66.9 °F 30.0 °F 25% 30.09 in 10.0 mi Calm Calm - N/A   Mostly Cloudy
5:51 PM 66.9 °F 27.0 °F 22% 30.10 in 10.0 mi NNW 3.5 mph - N/A   Mostly Cloudy
6:51 PM 63.0 °F 34.0 °F 34% 30.11 in 9.0 mi Calm Calm - N/A   Mostly Cloudy
7:51 PM 64.0 °F 34.0 °F 33% 30.12 in 7.0 mi East 3.5 mph - N/A   Mostly Cloudy
8:51 PM 61.0 °F 32.0 °F 34% 30.13 in 8.0 mi Calm Calm - N/A   Mostly Cloudy
9:51 PM 60.1 °F 30.0 °F 32% 30.12 in 10.0 mi Calm Calm - N/A   Mostly Cloudy
10:51 PM 57.9 °F 30.9 °F 36% 30.12 in 9.0 mi Calm Calm - N/A   Mostly Cloudy
11:51 PM 57.0 °F 32.0 °F 39% 30.11 in 9.0 mi Calm Calm - N/A   Mostly Cloudy